Back to catalog

MISRSAT-2

AliveScienceSSO
NORAD 58497·PAYLOAD·🇪🇬 Egypt

Launched Dec 4, 2023 from Jiuquan Satellite Launch Center

Loading…

Next Passes (next 24 hours)

TLE

FreshSource: Space-Track

Epoch: Sep 14, 2026, 15:22 UTC

1 58497U 23187B   26257.64093881  .00000846  00000-0  10960-3 0  9992
2 58497  97.9224 338.8632 0010274 208.4601 151.6053 14.83416257150307

Track MISRSAT-2 in real time with AllMySat

Download on the App Store